QPF
0.00 0.00 0.01 0.02 0.02 0.03 0.03 0.07 0.14 0.14 0.15 0.16 0.14 0.12 0.08 0.07 0.08 0.08 0.07 0.05 0.05 0.05 0.07 0.07 0.07 0.04 0.04 0.04 0.03 0.02 0.03 0.02 0.02 0.04 0.06 0.05 0.05 0.04 0.01 0.01 0.01 0.00 0.00
0.00 0.01 0.01 0.02 0.02 0.03 0.05 0.08 0.11 0.11 0.12 0.14 0.14 0.12 0.08 0.06 0.08 0.08 0.09 0.05 0.04 0.04 0.05 0.08 0.05 0.04 0.06 0.05 0.05 0.05 0.06 0.05 0.03 0.04 0.08 0.10 0.12 0.09 0.02 0.01 0.01 0.00 0.01
0.00 0.01 0.01 0.01 0.02 0.02 0.04 0.07 0.11 0.12 0.13 0.13 0.13 0.12 0.09 0.08 0.09 0.09 0.09 0.06 0.03 0.03 0.05 0.05 0.05 0.06 0.04 0.06 0.05 0.04 0.05 0.07 0.05 0.03 0.06 0.10 0.13 0.10 0.05 0.01 0.01 0.01 0.02
0.00 0.01 0.01 0.01 0.02 0.04 0.05 0.07 0.07 0.11 0.17 0.15 0.12 0.09 0.06 0.05 0.06 0.07 0.07 0.06 0.04 0.04 0.04 0.05 0.05 0.05 0.04 0.06 0.04 0.06 0.05 0.06 0.06 0.04 0.03 0.04 0.07 0.09 0.10 0.05 0.01 0.01 0.01
0.01 0.01 0.01 0.01 0.02 0.05 0.07 0.06 0.05 0.07 0.11 0.14 0.16 0.14 0.10 0.08 0.08 0.08 0.09 0.07 0.06 0.07 0.06 0.06 0.07 0.05 0.04 0.05 0.06 0.09 0.05 0.04 0.03 0.04 0.04 0.03 0.04 0.03 0.06 0.09 0.05 0.03 0.01
0.01 0.01 0.01 0.01 0.01 0.02 0.03 0.03 0.05 0.07 0.09 0.09 0.12 0.12 0.12 0.11 0.10 0.10 0.08 0.08 0.07 0.08 0.08 0.07 0.07 0.05 0.05 0.06 0.05 0.06 0.05 0.06 0.06 0.05 0.04 0.04 0.03 0.03 0.04 0.05 0.04 0.03 0.01
0.00 0.01 0.00 0.01 0.01 0.03 0.03 0.03 0.04 0.05 0.07 0.08 0.09 0.09 0.10 0.11 0.11 0.10 0.09 0.09 0.08 0.07 0.08 0.08 0.07 0.05 0.05 0.05 0.05 0.05 0.04 0.05 0.06 0.04 0.03 0.03 0.03 0.02 0.02 0.02 0.02 0.02 0.01
0.00 0.01 0.01 0.00 0.01 0.03 0.04 0.03 0.03 0.05 0.08 0.08 0.08 0.09 0.11 0.11 0.11 0.12 0.10 0.09 0.07 0.07 0.08 0.09 0.06 0.05 0.04 0.04 0.04 0.04 0.04 0.04 0.04 0.04 0.05 0.04 0.03 0.01 0.01 0.02 0.02 0.02 0.02
0.00 0.00 0.00 0.00 0.01 0.03 0.05 0.04 0.03 0.04 0.06 0.07 0.08 0.10 0.12 0.11 0.12 0.11 0.10 0.10 0.09 0.08 0.09 0.08 0.07 0.05 0.04 0.03 0.04 0.04 0.04 0.04 0.04 0.05 0.05 0.04 0.02 0.00 0.01 0.02 0.02 0.03 0.04
0.00 0.00 0.00 0.00 0.01 0.02 0.04 0.05 0.05 0.05 0.06 0.06 0.08 0.10 0.12 0.11 0.11 0.11 0.11 0.10 0.10 0.10 0.11 0.10 0.08 0.07 0.05 0.05 0.06 0.04 0.04 0.04 0.04 0.05 0.05 0.05 0.03 0.03 0.03 0.03 0.03 0.02 0.03
0.00 0.00 0.00 0.00 0.01 0.01 0.03 0.04 0.05 0.06 0.07 0.08 0.08 0.09 0.09 0.09 0.10 0.10 0.10 0.10 0.11 0.12 0.11 0.09 0.08 0.08 0.07 0.07 0.06 0.06 0.06 0.05 0.04 0.05 0.04 0.05 0.05 0.04 0.04 0.05 0.05 0.05 0.04
0.00 0.00 0.00 0.00 0.00 0.01 0.02 0.03 0.05 0.05 0.05 0.05 0.07 0.08 0.09 0.09 0.09 0.09 0.09 0.10 0.10 0.11 0.09 0.10 0.12 0.09 0.09 0.09 0.07 0.07 0.07 0.06 0.06 0.06 0.05 0.05 0.04 0.04 0.04 0.05 0.05 0.05 0.05
0.00 0.00 0.00 0.00 0.00 0.01 0.01 0.03 0.04 0.05 0.05 0.05 0.06 0.09 0.11 0.12 0.11 0.11 0.12 0.11 0.09 0.08 0.09 0.10 0.11 0.11 0.12 0.10 0.08 0.06 0.05 0.05 0.05 0.06 0.05 0.05 0.05 0.05 0.06 0.06 0.05 0.05 0.05
0.00 0.00 0.00 0.00 0.00 0.01 0.01 0.02 0.03 0.04 0.05 0.05 0.05 0.07 0.09 0.12 0.15 0.15 0.14 0.13 0.10 0.09 0.09 0.09 0.10 0.10 0.11 0.11 0.09 0.08 0.06 0.05 0.04 0.05 0.06 0.06 0.06 0.07 0.07 0.07 0.07 0.09 0.09
0.00 0.00 0.01 0.00 0.01 0.01 0.01 0.01 0.01 0.02 0.03 0.06 0.06 0.05 0.06 0.08 0.12 0.15 0.14 0.14 0.12 0.10 0.09 0.10 0.11 0.10 0.10 0.09 0.09 0.09 0.10 0.10 0.10 0.10 0.09 0.09 0.10 0.09 0.08 0.07 0.09 0.09 0.09
0.00 0.01 0.01 0.01 0.01 0.01 0.00 0.01 0.01 0.02 0.04 0.06 0.06 0.07 0.09 0.08 0.08 0.09 0.10 0.12 0.12 0.12 0.12 0.11 0.09 0.08 0.06 0.08 0.11 0.11 0.13 0.14 0.13 0.12 0.11 0.09 0.08 0.07 0.06 0.06 0.07 0.07 0.08
0.01 0.02 0.01 0.01 0.01 0.00 0.00 0.00 0.01 0.03 0.04 0.05 0.06 0.08 0.10 0.09 0.08 0.06 0.06 0.07 0.10 0.12 0.11 0.10 0.09 0.08 0.08 0.09 0.09 0.09 0.10 0.11 0.11 0.11 0.11 0.09 0.07 0.08 0.07 0.09 0.08 0.07 0.07
0.02 0.03 0.02 0.01 0.01 0.01 0.01 0.01 0.02 0.03 0.04 0.05 0.05 0.06 0.08 0.10 0.09 0.07 0.07 0.07 0.08 0.10 0.10 0.10 0.09 0.09 0.09 0.08 0.07 0.08 0.09 0.11 0.12 0.11 0.10 0.09 0.08 0.08 0.10 0.11 0.11 0.09 0.08
0.02 0.02 0.02 0.01 0.01 0.02 0.02 0.02 0.03 0.04 0.04 0.04 0.04 0.06 0.06 0.08 0.08 0.07 0.07 0.07 0.07 0.09 0.10 0.10 0.11 0.09 0.08 0.07 0.07 0.09 0.11 0.13 0.11 0.10 0.11 0.10 0.09 0.09 0.08 0.09 0.10 0.09 0.08
0.03 0.03 0.04 0.04 0.04 0.03 0.04 0.04 0.05 0.06 0.06 0.05 0.06 0.07 0.10 0.09 0.09 0.09 0.09 0.10 0.12 0.13 0.13 0.14 0.12 0.10 0.09 0.09 0.09 0.09 0.10 0.10 0.09 0.10 0.10 0.12 0.11 0.09 0.08 0.08 0.09 0.07 0.06
0.03 0.03 0.04 0.06 0.05 0.05 0.04 0.05 0.05 0.06 0.07 0.08 0.08 0.08 0.10 0.11 0.11 0.11 0.12 0.12 0.13 0.14 0.14 0.12 0.11 0.10 0.11 0.12 0.12 0.11 0.11 0.12 0.12 0.14 0.14 0.14 0.14 0.12 0.10 0.08 0.06 0.05 0.05
0.03 0.03 0.04 0.06 0.06 0.07 0.05 0.04 0.05 0.06 0.08 0.09 0.09 0.09 0.11 0.11 0.11 0.13 0.14 0.15 0.15 0.13 0.12 0.11 0.10 0.11 0.12 0.12 0.13 0.13 0.13 0.14 0.15 0.15 0.14 0.13 0.12 0.10 0.09 0.07 0.05 0.05 0.05
0.03 0.05 0.05 0.05 0.05 0.06 0.07 0.06 0.05 0.05 0.05 0.06 0.07 0.08 0.08 0.09 0.11 0.12 0.13 0.14 0.12 0.11 0.10 0.11 0.11 0.11 0.11 0.11 0.12 0.12 0.12 0.12 0.10 0.10 0.11 0.10 0.08 0.06 0.06 0.06 0.05 0.05 0.04
0.02 0.04 0.05 0.05 0.04 0.05 0.04 0.03 0.02 0.02 0.03 0.04 0.05 0.06 0.06 0.06 0.09 0.12 0.14 0.13 0.12 0.12 0.12 0.12 0.12 0.11 0.08 0.07 0.08 0.10 0.11 0.11 0.10 0.09 0.08 0.08 0.07 0.06 0.06 0.07 0.06 0.05 0.05
0.02 0.03 0.04 0.05 0.05 0.04 0.02 0.03 0.02 0.02 0.02 0.03 0.04 0.05 0.06 0.07 0.07 0.09 0.10 0.12 0.13 0.15 0.15 0.14 0.11 0.09 0.07 0.07 0.07 0.08 0.09 0.09 0.08 0.08 0.07 0.07 0.06 0.06 0.06 0.05 0.05 0.05 0.05
0.02 0.02 0.03 0.04 0.04 0.05 0.04 0.03 0.03 0.03 0.03 0.03 0.05 0.05 0.05 0.06 0.08 0.09 0.09 0.11 0.11 0.12 0.12 0.10 0.09 0.09 0.08 0.07 0.06 0.06 0.06 0.07 0.08 0.08 0.07 0.08 0.07 0.06 0.05 0.04 0.04 0.04 0.04
MSLP
1007.02 1007.56 1008.05 1008.48 1008.85 1009.19 1009.52 1009.91 1010.37 1010.93 1011.59 1012.32 1013.09 1013.83 1014.51 1015.07 1015.49 1015.77 1015.91 1015.95 1015.93 1015.90 1015.88 1015.93 1016.06 1016.26 1016.55 1016.90 1017.28 1017.69 1018.08 1018.44 1018.76 1019.02 1019.22 1019.35 1019.41 1019.41 1019.37 1019.31 1019.27 1019.25 1019.30
1007.21 1007.78 1008.29 1008.71 1009.06 1009.36 1009.67 1010.03 1010.50 1011.08 1011.76 1012.51 1013.28 1014.01 1014.65 1015.15 1015.49 1015.69 1015.77 1015.78 1015.76 1015.76 1015.81 1015.94 1016.14 1016.40 1016.73 1017.08 1017.45 1017.81 1018.17 1018.50 1018.80 1019.07 1019.29 1019.45 1019.55 1019.59 1019.57 1019.50 1019.42 1019.34 1019.32
1007.20 1007.80 1008.33 1008.76 1009.11 1009.42 1009.73 1010.10 1010.59 1011.20 1011.92 1012.70 1013.48 1014.19 1014.79 1015.22 1015.49 1015.62 1015.65 1015.63 1015.62 1015.66 1015.77 1015.96 1016.23 1016.55 1016.89 1017.24 1017.57 1017.89 1018.19 1018.49 1018.77 1019.04 1019.28 1019.50 1019.66 1019.75 1019.77 1019.73 1019.64 1019.53 1019.43
1007.00 1007.63 1008.19 1008.66 1009.03 1009.37 1009.71 1010.12 1010.65 1011.30 1012.06 1012.86 1013.65 1014.35 1014.90 1015.29 1015.50 1015.57 1015.55 1015.51 1015.51 1015.58 1015.74 1015.99 1016.31 1016.66 1017.01 1017.34 1017.64 1017.91 1018.16 1018.41 1018.66 1018.93 1019.21 1019.47 1019.70 1019.86 1019.95 1019.95 1019.87 1019.75 1019.60
1006.68 1007.34 1007.94 1008.45 1008.88 1009.26 1009.65 1010.11 1010.68 1011.37 1012.15 1012.97 1013.75 1014.43 1014.96 1015.30 1015.46 1015.50 1015.45 1015.41 1015.41 1015.50 1015.70 1015.99 1016.34 1016.71 1017.06 1017.38 1017.64 1017.86 1018.06 1018.27 1018.50 1018.77 1019.07 1019.38 1019.66 1019.90 1020.04 1020.09 1020.04 1019.91 1019.73
1006.31 1007.00 1007.65 1008.21 1008.69 1009.13 1009.56 1010.06 1010.67 1011.37 1012.16 1012.98 1013.75 1014.40 1014.90 1015.21 1015.35 1015.36 1015.31 1015.27 1015.29 1015.40 1015.62 1015.94 1016.30 1016.68 1017.03 1017.32 1017.55 1017.74 1017.91 1018.09 1018.30 1018.57 1018.88 1019.22 1019.55 1019.83 1020.02 1020.12 1020.09 1019.97 1019.76
1005.96 1006.68 1007.37 1007.99 1008.52 1009.00 1009.48 1010.00 1010.61 1011.31 1012.08 1012.86 1013.60 1014.22 1014.69 1014.98 1015.12 1015.14 1015.10 1015.08 1015.12 1015.26 1015.50 1015.82 1016.19 1016.57 1016.90 1017.18 1017.39 1017.56 1017.71 1017.87 1018.08 1018.34 1018.66 1019.00 1019.35 1019.66 1019.88 1019.99 1019.99 1019.88 1019.68
1005.67 1006.42 1007.15 1007.81 1008.40 1008.91 1009.41 1009.94 1010.53 1011.19 1011.90 1012.62 1013.30 1013.88 1014.32 1014.61 1014.76 1014.81 1014.81 1014.83 1014.91 1015.07 1015.33 1015.66 1016.03 1016.39 1016.72 1016.99 1017.19 1017.35 1017.50 1017.66 1017.86 1018.12 1018.42 1018.76 1019.10 1019.40 1019.63 1019.75 1019.76 1019.66 1019.47
1005.47 1006.24 1007.00 1007.71 1008.32 1008.87 1009.38 1009.88 1010.43 1011.02 1011.65 1012.29 1012.90 1013.42 1013.84 1014.13 1014.30 1014.40 1014.47 1014.55 1014.68 1014.88 1015.16 1015.50 1015.86 1016.21 1016.53 1016.79 1016.99 1017.16 1017.32 1017.48 1017.69 1017.94 1018.23 1018.54 1018.85 1019.12 1019.32 1019.44 1019.45 1019.37 1019.22
1005.37 1006.15 1006.93 1007.67 1008.31 1008.88 1009.38 1009.86 1010.35 1010.86 1011.40 1011.94 1012.46 1012.92 1013.31 1013.61 1013.82 1013.99 1014.13 1014.29 1014.49 1014.75 1015.05 1015.40 1015.75 1016.09 1016.39 1016.65 1016.86 1017.04 1017.21 1017.40 1017.61 1017.85 1018.11 1018.39 1018.66 1018.88 1019.05 1019.14 1019.16 1019.10 1018.99
1005.36 1006.14 1006.94 1007.69 1008.35 1008.93 1009.44 1009.89 1010.33 1010.77 1011.21 1011.65 1012.08 1012.48 1012.84 1013.15 1013.41 1013.65 1013.88 1014.13 1014.41 1014.73 1015.07 1015.42 1015.77 1016.10 1016.39 1016.63 1016.85 1017.05 1017.24 1017.44 1017.66 1017.90 1018.14 1018.38 1018.59 1018.77 1018.89 1018.96 1018.98 1018.96 1018.90
1005.43 1006.20 1006.99 1007.75 1008.44 1009.03 1009.55 1009.99 1010.40 1010.77 1011.14 1011.50 1011.85 1012.19 1012.52 1012.84 1013.16 1013.47 1013.80 1014.14 1014.50 1014.87 1015.25 1015.62 1015.96 1016.27 1016.54 1016.78 1017.00 1017.21 1017.42 1017.64 1017.87 1018.11 1018.33 1018.54 1018.71 1018.84 1018.93 1018.98 1019.00 1019.00 1019.01
1005.59 1006.32 1007.09 1007.84 1008.54 1009.16 1009.70 1010.16 1010.56 1010.90 1011.22 1011.51 1011.81 1012.11 1012.42 1012.75 1013.11 1013.49 1013.90 1014.33 1014.77 1015.20 1015.61 1015.99 1016.32 1016.61 1016.87 1017.09 1017.31 1017.53 1017.75 1017.99 1018.24 1018.48 1018.71 1018.89 1019.04 1019.13 1019.19 1019.23 1019.25 1019.29 1019.35
1005.81 1006.48 1007.20 1007.94 1008.65 1009.30 1009.88 1010.37 1010.79 1011.14 1011.44 1011.70 1011.96 1012.23 1012.53 1012.88 1013.27 1013.71 1014.19 1014.70 1015.20 1015.68 1016.13 1016.51 1016.84 1017.12 1017.35 1017.56 1017.77 1017.99 1018.23 1018.50 1018.76 1019.02 1019.25 1019.43 1019.56 1019.64 1019.68 1019.70 1019.74 1019.80 1019.90
1006.07 1006.66 1007.32 1008.02 1008.73 1009.41 1010.04 1010.59 1011.05 1011.44 1011.75 1012.02 1012.28 1012.54 1012.84 1013.19 1013.61 1014.10 1014.64 1015.20 1015.76 1016.28 1016.75 1017.15 1017.47 1017.73 1017.94 1018.14 1018.35 1018.57 1018.83 1019.11 1019.40 1019.68 1019.93 1020.12 1020.25 1020.32 1020.36 1020.38 1020.41 1020.48 1020.60
1006.34 1006.83 1007.42 1008.07 1008.77 1009.47 1010.15 1010.76 1011.29 1011.74 1012.10 1012.41 1012.68 1012.95 1013.26 1013.63 1014.08 1014.60 1015.18 1015.78 1016.38 1016.93 1017.42 1017.83 1018.15 1018.40 1018.61 1018.80 1019.00 1019.23 1019.51 1019.81 1020.13 1020.44 1020.71 1020.91 1021.05 1021.13 1021.16 1021.17 1021.19 1021.25 1021.37
1006.60 1006.98 1007.48 1008.08 1008.75 1009.47 1010.18 1010.86 1011.47 1011.99 1012.43 1012.78 1013.10 1013.41 1013.74 1014.13 1014.60 1015.15 1015.75 1016.39 1017.01 1017.59 1018.10 1018.51 1018.84 1019.09 1019.30 1019.49 1019.70 1019.94 1020.23 1020.56 1020.91 1021.24 1021.53 1021.76 1021.91 1021.99 1022.01 1022.00 1021.99 1022.02 1022.10
1006.81 1007.11 1007.52 1008.05 1008.69 1009.40 1010.15 1010.89 1011.57 1012.17 1012.68 1013.11 1013.49 1013.85 1014.22 1014.65 1015.14 1015.71 1016.33 1016.99 1017.63 1018.23 1018.75 1019.18 1019.52 1019.78 1020.00 1020.20 1020.43 1020.69 1020.99 1021.34 1021.70 1022.05 1022.36 1022.59 1022.75 1022.82 1022.82 1022.78 1022.73 1022.71 1022.73
1007.00 1007.22 1007.56 1008.03 1008.63 1009.33 1010.09 1010.87 1011.61 1012.29 1012.88 1013.40 1013.85 1014.27 1014.70 1015.16 1015.69 1016.28 1016.91 1017.58 1018.23 1018.84 1019.38 1019.83 1020.19 1020.47 1020.71 1020.93 1021.17 1021.44 1021.75 1022.10 1022.47 1022.82 1023.13 1023.36 1023.50 1023.56 1023.53 1023.45 1023.35 1023.26 1023.21
1007.19 1007.38 1007.67 1008.09 1008.65 1009.32 1010.08 1010.88 1011.67 1012.41 1013.08 1013.67 1014.20 1014.70 1015.18 1015.70 1016.25 1016.86 1017.51 1018.18 1018.84 1019.46 1020.01 1020.48 1020.86 1021.16 1021.42 1021.66 1021.91 1022.19 1022.50 1022.84 1023.19 1023.52 1023.80 1024.01 1024.13 1024.15 1024.09 1023.97 1023.81 1023.65 1023.52
1007.45 1007.64 1007.91 1008.29 1008.81 1009.46 1010.20 1011.01 1011.82 1012.60 1013.34 1014.00 1014.61 1015.17 1015.72 1016.28 1016.87 1017.50 1018.15 1018.83 1019.49 1020.11 1020.66 1021.14 1021.53 1021.86 1022.13 1022.39 1022.64 1022.91 1023.20 1023.51 1023.82 1024.11 1024.35 1024.51 1024.59 1024.57 1024.47 1024.31 1024.11 1023.89 1023.70
1007.85 1008.07 1008.34 1008.71 1009.20 1009.82 1010.53 1011.32 1012.14 1012.95 1013.72 1014.44 1015.11 1015.73 1016.34 1016.94 1017.55 1018.19 1018.85 1019.52 1020.17 1020.78 1021.33 1021.81 1022.21 1022.55 1022.83 1023.08 1023.32 1023.57 1023.82 1024.08 1024.33 1024.55 1024.73 1024.83 1024.86 1024.80 1024.67 1024.48 1024.25 1024.01 1023.78
1008.42 1008.70 1009.00 1009.37 1009.85 1010.43 1011.11 1011.87 1012.67 1013.48 1014.27 1015.02 1015.73 1016.40 1017.04 1017.67 1018.31 1018.95 1019.60 1020.24 1020.87 1021.46 1022.00 1022.47 1022.87 1023.20 1023.48 1023.72 1023.93 1024.13 1024.33 1024.51 1024.69 1024.83 1024.93 1024.97 1024.95 1024.86 1024.71 1024.51 1024.29 1024.05 1023.82
1009.18 1009.53 1009.88 1010.26 1010.73 1011.28 1011.92 1012.64 1013.40 1014.19 1014.98 1015.73 1016.46 1017.15 1017.81 1018.45 1019.08 1019.71 1020.34 1020.96 1021.56 1022.12 1022.63 1023.08 1023.46 1023.78 1024.03 1024.24 1024.42 1024.56 1024.69 1024.80 1024.88 1024.94 1024.97 1024.95 1024.89 1024.78 1024.63 1024.46 1024.27 1024.07 1023.87
1010.10 1010.52 1010.91 1011.32 1011.77 1012.29 1012.89 1013.55 1014.27 1015.02 1015.77 1016.51 1017.22 1017.90 1018.56 1019.19 1019.81 1020.42 1021.02 1021.60 1022.16 1022.68 1023.16 1023.58 1023.93 1024.23 1024.46 1024.63 1024.76 1024.85 1024.91 1024.94 1024.94 1024.93 1024.89 1024.82 1024.74 1024.63 1024.51 1024.38 1024.25 1024.12 1023.99
1011.09 1011.58 1012.01 1012.43 1012.88 1013.37 1013.91 1014.52 1015.17 1015.86 1016.55 1017.25 1017.92 1018.58 1019.21 1019.82 1020.41 1020.99 1021.55 1022.09 1022.61 1023.10 1023.54 1023.93 1024.26 1024.53 1024.73 1024.87 1024.96 1025.00 1025.00 1024.97 1024.91 1024.84 1024.76 1024.67 1024.58 1024.50 1024.43 1024.37 1024.31 1024.26 1024.21
Thickness
5825 5820 5813 5807 5799 5791 5784 5778 5772 5767 5761 5756 5752 5749 5749 5751 5750 5750 5749 5749 5749 5748 5748 5749 5748 5748 5747 5746 5746 5744 5742 5741 5742 5738 5735 5737 5740 5739 5739 5739 5738 5737 5735
5818 5813 5809 5803 5796 5789 5783 5777 5771 5767 5762 5758 5755 5752 5751 5750 5750 5750 5749 5749 5749 5748 5748 5748 5748 5747 5746 5745 5745 5743 5740 5740 5742 5737 5730 5726 5728 5734 5741 5740 5739 5738 5736
5816 5810 5805 5800 5795 5788 5783 5778 5772 5767 5763 5759 5754 5751 5749 5748 5747 5746 5747 5748 5748 5747 5748 5747 5748 5748 5747 5744 5743 5743 5740 5737 5740 5741 5734 5725 5720 5727 5735 5739 5739 5739 5737
5821 5812 5805 5799 5795 5789 5785 5779 5773 5768 5763 5759 5754 5750 5746 5744 5746 5746 5746 5747 5748 5747 5748 5747 5747 5747 5747 5745 5744 5744 5743 5740 5737 5739 5740 5738 5734 5726 5724 5733 5738 5739 5738
5822 5813 5807 5801 5796 5791 5785 5779 5773 5767 5763 5759 5756 5751 5748 5747 5747 5747 5746 5746 5747 5747 5748 5747 5747 5747 5747 5746 5745 5745 5744 5742 5739 5738 5738 5738 5737 5736 5727 5723 5730 5735 5738
5822 5815 5809 5802 5795 5791 5785 5779 5772 5766 5763 5759 5756 5752 5749 5747 5745 5744 5744 5744 5745 5746 5747 5747 5747 5747 5747 5746 5746 5745 5743 5742 5741 5740 5740 5738 5735 5733 5732 5728 5728 5730 5736
5820 5811 5804 5798 5793 5789 5784 5779 5772 5766 5763 5759 5756 5754 5751 5748 5745 5744 5744 5744 5745 5745 5746 5747 5746 5746 5746 5746 5745 5743 5743 5741 5740 5739 5740 5740 5739 5739 5736 5732 5729 5730 5734
5818 5810 5804 5798 5793 5789 5784 5778 5772 5767 5763 5760 5757 5755 5752 5749 5747 5746 5746 5746 5747 5748 5747 5747 5746 5746 5746 5745 5744 5743 5742 5741 5740 5739 5739 5738 5739 5739 5738 5734 5730 5725 5727
5815 5809 5804 5798 5793 5789 5784 5779 5773 5768 5764 5760 5756 5754 5752 5750 5748 5748 5747 5748 5748 5748 5748 5747 5746 5745 5744 5744 5742 5740 5740 5739 5738 5737 5737 5736 5737 5738 5738 5736 5733 5725 5718
5814 5809 5803 5798 5794 5790 5785 5780 5774 5769 5765 5761 5757 5755 5753 5751 5749 5748 5747 5747 5748 5748 5746 5745 5744 5743 5742 5741 5740 5739 5738 5737 5735 5735 5734 5733 5734 5734 5735 5734 5733 5731 5724
5812 5806 5802 5798 5794 5789 5784 5778 5774 5769 5764 5761 5758 5756 5754 5752 5750 5748 5747 5747 5746 5745 5744 5743 5742 5741 5740 5738 5736 5735 5735 5733 5732 5732 5731 5730 5729 5728 5729 5730 5729 5727 5725
5809 5805 5800 5795 5791 5786 5781 5776 5773 5768 5765 5762 5758 5755 5754 5752 5750 5748 5747 5746 5744 5743 5742 5740 5739 5738 5737 5736 5733 5731 5732 5730 5728 5728 5727 5726 5726 5724 5723 5723 5723 5722 5722
5805 5800 5796 5791 5786 5782 5779 5775 5772 5768 5765 5762 5758 5754 5752 5751 5749 5747 5746 5744 5742 5741 5740 5738 5736 5735 5734 5733 5732 5730 5728 5727 5726 5725 5723 5722 5721 5718 5718 5717 5717 5717 5717
5799 5794 5789 5786 5783 5780 5776 5773 5770 5768 5765 5761 5757 5753 5751 5749 5748 5746 5744 5742 5740 5738 5737 5736 5734 5732 5731 5730 5729 5726 5724 5723 5722 5721 5719 5717 5715 5713 5712 5712 5711 5710 5709
5793 5788 5784 5781 5778 5775 5773 5771 5768 5765 5763 5759 5755 5752 5750 5748 5746 5744 5741 5739 5737 5736 5734 5732 5729 5728 5727 5725 5724 5722 5720 5717 5715 5714 5713 5711 5709 5708 5707 5706 5704 5703 5701
5787 5784 5780 5776 5773 5771 5769 5767 5764 5762 5759 5755 5752 5750 5747 5745 5742 5740 5737 5735 5733 5731 5729 5727 5724 5722 5721 5720 5718 5716 5715 5712 5709 5706 5705 5704 5702 5700 5698 5697 5695 5694 5692
5781 5777 5774 5771 5769 5768 5766 5762 5760 5759 5755 5751 5749 5746 5743 5740 5738 5736 5733 5730 5728 5727 5724 5721 5719 5716 5713 5713 5711 5710 5708 5706 5703 5700 5697 5696 5696 5693 5690 5688 5686 5684 5682
5776 5772 5770 5768 5766 5765 5763 5760 5757 5754 5750 5747 5744 5742 5739 5735 5733 5730 5727 5724 5722 5720 5717 5714 5712 5709 5706 5705 5703 5702 5701 5698 5695 5692 5690 5687 5685 5683 5681 5679 5677 5674 5672
5770 5767 5766 5763 5760 5758 5757 5754 5751 5748 5744 5741 5738 5736 5734 5730 5727 5724 5721 5719 5715 5712 5709 5707 5704 5701 5698 5697 5696 5694 5693 5689 5685 5682 5680 5678 5675 5672 5671 5670 5667 5663 5661
5762 5759 5758 5755 5751 5750 5749 5746 5742 5740 5736 5735 5733 5731 5728 5725 5721 5718 5715 5712 5709 5705 5701 5698 5695 5693 5690 5688 5688 5686 5684 5680 5675 5671 5668 5665 5663 5661 5661 5659 5656 5652 5649
5753 5751 5748 5743 5741 5741 5739 5735 5732 5729 5729 5729 5727 5724 5721 5718 5715 5711 5708 5705 5701 5696 5692 5688 5684 5681 5679 5678 5676 5675 5674 5670 5665 5661 5656 5652 5651 5650 5648 5647 5644 5640 5637
5742 5741 5737 5733 5732 5731 5728 5724 5721 5720 5720 5719 5715 5713 5710 5708 5706 5702 5698 5695 5691 5687 5682 5678 5674 5669 5667 5665 5664 5662 5660 5658 5654 5648 5643 5640 5639 5637 5635 5633 5631 5629 5627
5732 5730 5727 5722 5721 5719 5717 5713 5711 5710 5709 5706 5703 5700 5698 5696 5693 5690 5687 5685 5682 5678 5673 5669 5664 5658 5655 5652 5650 5648 5646 5644 5641 5636 5632 5629 5627 5625 5623 5621 5619 5617 5614
5719 5718 5715 5711 5708 5707 5705 5703 5702 5700 5698 5694 5691 5688 5685 5682 5678 5676 5674 5671 5669 5666 5662 5658 5652 5647 5643 5640 5638 5635 5632 5630 5627 5624 5620 5618 5616 5614 5611 5609 5606 5603 5600
5707 5705 5702 5699 5696 5695 5694 5693 5692 5690 5687 5683 5680 5676 5672 5667 5661 5657 5653 5652 5649 5650 5649 5645 5641 5637 5629 5624 5623 5624 5620 5618 5615 5612 5611 5609 5605 5602 5599 5595 5592 5588 5585
5695 5692 5690 5688 5686 5684 5682 5682 5681 5680 5677 5672 5668 5664 5660 5655 5650 5645 5638 5632 5632 5632 5631 5628 5626 5619 5615 5613 5611 5610 5608 5605 5603 5602 5600 5596 5593 5589 5585 5582 5578 5573 5569